Location: Newport
(44.6370°N, 124.0520°W)
Time: 01:02:52
(UTC-07:00)

Envisat - Pass Details

Date: 16 October 2017
Orbit: 764 x 766 km, 98.2° (Epoch: 22 October)

Event Time Altitude Azimuth Distance (km) Brightness Sun altitude
Exits shadow 21:06:42 68° 327° (NNW) 828 3.2 -28.6°
Drops below altitude 10° 21:11:09 10° 345° (NNW) 2,312 5.8 -29.3°
Sets 21:13:28 0° 346° (NNW) 3,242 6.6 -29.7°
